Weather Roundup
Issued by NWS Springfield, MO

Home | Current Version | Previous Version | Text Only | Print | Product List | Glossary On
Versions: 1 2 3 4 5 6 7 8 9 10 11 12 13 14 15 16 17 18 19 20 21 22 23 24 25 26 27 28 29 30 31 32 33 34 35 36 37 38 39 40 41 42 43 44 45 46 47 48 49 50
000
NZUS99 KSGF 261507
HRRSGF

HOURLY WEATHER
NATIONAL WEATHER SERVICE SPRINGFIELD MO
1000 AM CDT MON SEP 26 2016

......SGF CWA......

CITY           SKY/WX    TMP DP  RH WIND       PRES   REMARKS
SPRINGFIELD    SUNNY     64  49  57 N12       30.25R
JOPLIN         SUNNY     64  52  64 NE6       30.28R
WEST PLAINS    PTSUNNY   63  55  75 N6        30.23R
ROLLA          SUNNY     62  52  69 NW10      30.21R
OSAGE BEACH    SUNNY     63  52  67 VRB3      30.25R
BRANSON        PTSUNNY   61  57  88 N7        30.26R

......SURROUNDING SGF CWA......

CITY           SKY/WX    TMP DP  RH WIND       PRES   REMARKS
CHANUTE        SUNNY     63  48  58 N8        30.30R
PARSONS        SUNNY     64  51  62 N7        30.30R
COFFEYVILLE    SUNNY     64  49  57 N9        30.29R
EMPORIA        SUNNY     60  47  61 N5        30.31R
GROVE OK       SUNNY     64  54  68 N6        30.27R
ROGERS AR      MOSUNNY   62  57  83 NE8       30.26S
SILOAM SPRINGS MOSUNNY   63  52  67 NE6       30.26R
HARRISON AR    CLOUDY    62  57  83 N7        30.25R
NEAR YELLVILLE CLOUDY    63  55  77 N6        30.21S

......KANSAS AND MISSOURI......

CITY           SKY/WX    TMP DP  RH WIND       PRES   REMARKS
KANSAS CTY INT SUNNY     58  45  62 W7        30.26S
DOWNTOWN KC    SUNNY     61  46  57 NW5       30.26S
COLUMBIA       SUNNY     63  49  60 NW8       30.22S
SEDALIA        SUNNY     65  46  50 NW7       30.26R
ST JOSEPH      SUNNY     60  45  57 W3        30.26S
ST LOUIS       NOT AVBL
SPIRIT OF STL  MOSUNNY   66  52  60 NW8       30.18R
KIRKSVILLE     SUNNY     62  44  51 W8        30.20S
WICHITA        MOSUNNY   62  45  53 NW3       30.33R
TOPEKA         SUNNY     58  48  69 SW6       30.29S
OLATHE         SUNNY     58  44  60 W5        30.28R

......TENNESSEE......

CITY           SKY/WX    TMP DP  RH WIND       PRES   REMARKS
MEMPHIS        PTSUNNY   71  59  65 NE20G26   30.13R
NASHVILLE      PTSUNNY   73  59  61 N14G22    30.11R

......ARKANSAS.......

CITY           SKY/WX    TMP DP  RH WIND       PRES   REMARKS
FAYETTEVILLE   MOSUNNY   64  59  83 NE7       30.25R
FT SMITH       CLOUDY    67  56  67 N3        30.22R
LITTLE ROCK    CLOUDY    71  55  56 N13       30.18R

......OKLAHOMA.......

CITY           SKY/WX    TMP DP  RH WIND       PRES   REMARKS
TULSA          MOSUNNY   65  56  72 N7        30.27R
PONCA CITY     SUNNY     63  47  55 NE8       30.31R
MCALESTER      CLOUDY    67  58  72 N13       30.24R
OKLAHOMA CITY  PTSUNNY   64  47  53 N12       30.29R

......IOWA............

CITY           SKY/WX    TMP DP  RH WIND       PRES   REMARKS
DES MOINES     SUNNY     61  41  47 NW12      30.16S
QUAD CITIES    SUNNY     63  42  46 W20G25    30.09R

......ILLINOIS........

CITY           SKY/WX    TMP DP  RH WIND       PRES   REMARKS
QUINCY         SUNNY     64  43  46 NW10      30.17R
CHICAGO        MOSUNNY   63  45  51 W18       29.99S



USA.gov is the U.S. government's official web portal to all federal, state and local government web resources and services.